Time,TemperatureF,DewpointF,PressureIn,WindDirection,WindDirectionDegrees,WindSpeedMPH,WindSpeedGustMPH,Humidity,HourlyPrecipIn,Conditions,Clouds,dailyrainin,SolarRadiationWatts/m^2,SoftwareType,DateUTC
2013-06-06 00:00:00,50.0,43.0,30.05,South,182,5.0,-999.0,75,-99.99,,,-99.99,0.100000,,2013-06-06 06:00:00,
2013-06-06 00:52:00,50.0,43.0,30.05,South,182,5.0,-999.0,75,-99.99,,,-99.99,0.100000,,2013-06-06 06:52:00,
2013-06-06 02:00:00,50.0,43.0,30.05,SSE,154,4.0,-999.0,76,-99.99,,,-99.99,0.060000,,2013-06-06 08:00:00,
2013-06-06 02:52:00,50.0,43.0,30.05,SSE,154,4.0,-999.0,76,-99.99,,,-99.99,0.060000,,2013-06-06 08:52:00,
2013-06-06 03:00:00,49.0,43.0,30.03,SSE,156,3.0,-999.0,80,-99.99,,,-99.99,0.050000,,2013-06-06 09:00:00,
2013-06-06 03:53:00,49.0,43.0,30.03,SSE,156,3.0,-999.0,80,-99.99,,,-99.99,0.050000,,2013-06-06 09:53:00,
2013-06-06 04:00:00,46.0,42.0,30.02,South,170,3.0,-999.0,86,-99.99,,,-99.99,0.050000,,2013-06-06 10:00:00,
2013-06-06 04:53:00,46.0,42.0,30.02,South,170,3.0,-999.0,86,-99.99,,,-99.99,0.050000,,2013-06-06 10:53:00,
2013-06-06 05:00:00,46.0,42.0,30.02,South,181,2.0,-999.0,85,-99.99,,,-99.99,0.460000,,2013-06-06 11:00:00,
2013-06-06 05:52:00,46.0,42.0,30.02,South,181,2.0,-999.0,85,-99.99,,,-99.99,0.460000,,2013-06-06 11:52:00,
2013-06-06 06:00:00,46.0,43.0,30.02,South,169,2.0,-999.0,90,-99.99,,,-99.99,25.930000,,2013-06-06 12:00:00,
2013-06-06 06:53:00,46.0,43.0,30.02,South,169,2.0,-999.0,90,-99.99,,,-99.99,25.930000,,2013-06-06 12:53:00,
2013-06-06 07:00:00,50.0,46.0,30.02,SSE,159,2.0,-999.0,85,-99.99,,,-99.99,130.100006,,2013-06-06 13:00:00,
2013-06-06 07:53:00,50.0,46.0,30.02,SSE,159,2.0,-999.0,85,-99.99,,,-99.99,130.100006,,2013-06-06 13:53:00,
2013-06-06 08:00:00,55.0,47.0,30.03,SE,146,4.0,-999.0,72,-99.99,,,-99.99,266.299988,,2013-06-06 14:00:00,
2013-06-06 08:53:00,55.0,47.0,30.03,SE,146,4.0,-999.0,72,-99.99,,,-99.99,266.299988,,2013-06-06 14:53:00,
2013-06-06 10:00:00,61.0,44.0,30.02,South,170,9.0,-999.0,54,-99.99,,,-99.99,500.700012,,2013-06-06 16:00:00,
2013-06-06 10:53:00,61.0,44.0,30.02,South,170,9.0,-999.0,54,-99.99,,,-99.99,500.700012,,2013-06-06 16:53:00,
2013-06-06 11:00:00,63.0,43.0,30.02,SSE,164,9.0,-999.0,48,-99.99,,,-99.99,592.700012,,2013-06-06 17:00:00,
2013-06-06 11:53:00,63.0,43.0,30.02,SSE,164,9.0,-999.0,48,-99.99,,,-99.99,592.700012,,2013-06-06 17:53:00,
2013-06-06 12:00:00,65.0,45.0,30.01,SSE,155,9.0,-999.0,48,-99.99,,,-99.99,628.299988,,2013-06-06 18:00:00,
2013-06-06 12:53:00,65.0,45.0,30.01,SSE,155,9.0,-999.0,48,-99.99,,,-99.99,628.299988,,2013-06-06 18:53:00,
2013-06-06 13:00:00,67.0,46.0,30.01,South,175,7.0,-999.0,47,-99.99,,,-99.99,711.099976,,2013-06-06 19:00:00,
2013-06-06 13:53:00,67.0,46.0,30.01,South,175,7.0,-999.0,47,-99.99,,,-99.99,711.099976,,2013-06-06 19:53:00,
2013-06-06 14:00:00,68.0,44.0,30.01,SSW,202,4.0,-999.0,41,-99.99,,,-99.99,637.000000,,2013-06-06 20:00:00,
2013-06-06 14:53:00,68.0,44.0,30.01,SSW,202,4.0,-999.0,41,-99.99,,,-99.99,637.000000,,2013-06-06 20:53:00,
2013-06-06 15:00:00,70.0,43.0,30.00,SSE,157,4.0,-999.0,38,-99.99,,,-99.99,696.500000,,2013-06-06 21:00:00,
2013-06-06 15:53:00,70.0,43.0,30.00,SSE,157,4.0,-999.0,38,-99.99,,,-99.99,696.500000,,2013-06-06 21:53:00,
2013-06-06 16:00:00,72.0,48.0,29.98,West,276,4.0,-999.0,43,-99.99,,,-99.99,470.600006,,2013-06-06 22:00:00,
2013-06-06 16:53:00,72.0,48.0,29.98,West,276,4.0,-999.0,43,-99.99,,,-99.99,470.600006,,2013-06-06 22:53:00,
2013-06-06 17:00:00,71.0,48.0,29.97,WSW,254,5.0,-999.0,44,-99.99,,,-99.99,366.000000,,2013-06-06 23:00:00,
2013-06-06 17:52:00,71.0,48.0,29.97,WSW,254,5.0,-999.0,44,-99.99,,,-99.99,366.000000,,2013-06-06 23:52:00,
2013-06-06 18:00:00,69.0,48.0,29.96,SW,232,4.0,-999.0,47,-99.99,,,-99.99,283.299988,,2013-06-07 00:00:00,
2013-06-06 18:52:00,69.0,48.0,29.96,SW,232,4.0,-999.0,47,-99.99,,,-99.99,283.299988,,2013-06-07 00:52:00,
2013-06-06 19:00:00,70.0,51.0,29.95,SW,215,4.0,-999.0,51,-99.99,,,-99.99,173.000000,,2013-06-07 01:00:00,
2013-06-06 19:52:00,70.0,51.0,29.95,SW,215,4.0,-999.0,51,-99.99,,,-99.99,173.000000,,2013-06-07 01:52:00,
2013-06-06 20:00:00,69.0,52.0,29.96,NNW,336,5.0,-999.0,53,-99.99,,,-99.99,120.400002,,2013-06-07 02:00:00,
2013-06-06 20:52:00,69.0,52.0,29.96,NNW,336,5.0,-999.0,53,-99.99,,,-99.99,120.400002,,2013-06-07 02:52:00,
2013-06-06 21:00:00,64.0,51.0,29.97,NNE,29,2.0,-999.0,63,-99.99,,,-99.99,19.240000,,2013-06-07 03:00:00,
2013-06-06 21:53:00,64.0,51.0,29.97,NNE,29,2.0,-999.0,63,-99.99,,,-99.99,19.240000,,2013-06-07 03:53:00,
2013-06-06 22:00:00,60.0,51.0,29.99,NW,305,2.0,-999.0,72,-99.99,,,-99.99,0.370000,,2013-06-07 04:00:00,
2013-06-06 22:53:00,60.0,51.0,29.99,NW,305,2.0,-999.0,72,-99.99,,,-99.99,0.370000,,2013-06-07 04:53:00,
2013-06-06 23:00:00,57.0,49.0,29.99,West,271,6.0,-999.0,75,-99.99,,,-99.99,0.150000,,2013-06-07 05:00:00,
2013-06-06 23:52:00,57.0,49.0,29.99,West,271,6.0,-999.0,75,-99.99,,,-99.99,0.150000,,2013-06-07 05:52:00,